Location: Aalen
(48.8330°N, 10.1000°E)
Time: 18:00:08
(UTC+02:00)

Transit 4A - Pass Details

Date: 03 August 2021
Orbit: 871 x 974 km, 66.8° (Epoch: 16 September)

Event Time Altitude Azimuth Distance (km) Brightness Sun altitude
Rises 23:13:39 0° 164° (SSE) 3,488 - -17.7°
Reaches altitude 10° 23:16:55 10° 146° (SSE) 2,539 - -18.0°
Maximum altitude 23:20:43 18° 105° (ESE) 2,013 - -18.3°
Exits shadow 23:21:03 18° 101° (E) 2,016 9.3 -18.3°
Drops below altitude 10° 23:24:31 10° 64° (ENE) 2,528 10.1 -18.6°
Sets 23:27:45 0° 47° (NE) 3,468 11.1 -18.9°
